Flag for Chile Weather past 2 weeks in Valdivia, Chile

Now
45 °F

Overcast.


Feels Like: 40 °F
Forecast: 44 / 64 °F
Wind: 8 mph from South

Location: Puerto Montt Airport

Current Time: Sep 4, 2015 at 3:58:41 AM

Latest Report: Sep 4, 2015 at 3:00 AM


Visibility: N/A

Pressure: 30.36 "Hg

Humidity: 87%

Dew point: 41 °F

Location of ValdiviaLocation

Historic Weather in Valdivia — Graph

°F

Valdivia temperature yesterday

Maximum temperature yesterday: 50 °F (at 2:00 PM)
Minimum temperature yesterday: 36 °F (at 7:00 AM)
Average temperature yesterday: 43 °F

Past Weeks' High & Low Weather Summary

 TemperatureHumidityPressure
High57 °F (Aug 28, 1:00 PM)100% (Aug 20, 2:00 AM)30.48 "Hg (Aug 20, 2:00 AM)
Low34 °F (Aug 31, 5:00 AM)51% (Aug 29, 3:00 PM)29.53 "Hg (Aug 25, 12:00 PM)
Average48 °F87%29.96 "Hg
* Reported Midnight between Aug 19 and Aug 20 — Midnight between Sep 3 and Sep 4, Valdivia, Weather by CustomWeather, © 2015

Note: Actual official high and low records may vary slightly from our data, if they occured in-between our weather recording intervals... More about our weather records

Advertising

Valdivia weather history for previous 24 hours

 ConditionsComfort  
Time TempWeatherWind HumidityBarometerVisibility
12:00 AM
Fri, Sep 4
43 °FClear.12 mph81%30.36 "Hg10 mi
11:00 PM
Thu, Sep 3
43 °FClear.10 mph81%30.36 "Hg10 mi
10:00 PM41 °FClear.5 mph87%30.39 "Hg10 mi
9:00 PM41 °FClear.3 mph87%30.39 "Hg10 mi
8:00 PM43 °FPassing clouds.7 mph81%30.36 "HgN/A
7:00 PM46 °FPassing clouds.13 mph71%30.36 "HgN/A
6:00 PM48 °FScattered clouds.15 mph66%30.36 "HgN/A
5:00 PM50 °FScattered clouds.15 mph62%30.36 "HgN/A
4:00 PM50 °FPartly sunny.12 mph62%30.36 "HgN/A
3:00 PM50 °FPartly sunny.10 mph62%30.36 "HgN/A
2:00 PM50 °FPartly sunny.14 mph67%30.39 "HgN/A
1:00 PM48 °FPartly sunny.12 mph71%30.39 "HgN/A
12:00 PM46 °FOvercast.3 mph82%30.39 "HgN/A
11:00 AM43 °FPartly sunny.7 mph93%30.39 "HgN/A
10:00 AM39 °FPartly sunny.7 mph93%30.39 "HgN/A
9:00 AM36 °FPartly sunny.6 mph100%30.39 "HgN/A
8:00 AM36 °FPartly sunny.6 mph100%30.39 "HgN/A
7:00 AM36 °FPassing clouds.6 mph100%30.39 "HgN/A
6:00 AM39 °FPassing clouds.3 mph93%30.39 "HgN/A
5:00 AM39 °FPassing clouds.3 mph93%30.39 "HgN/A
4:00 AM39 °FPassing clouds.6 mph100%30.39 "HgN/A
Weather by CustomWeather, © 2015

See weather overviewHow to use our weather pages